28/04/2024 08:00:00,0.648
28/04/2024 08:15:00,0.648
28/04/2024 08:30:00,0.648
28/04/2024 08:45:00,0.648
28/04/2024 09:00:00,0.648
28/04/2024 09:15:00,0.648
28/04/2024 09:30:00,0.648
28/04/2024 09:45:00,0.648
28/04/2024 10:00:00,0.648
28/04/2024 10:15:00,0.647
28/04/2024 10:30:00,0.646
28/04/2024 10:45:00,0.646
28/04/2024 11:00:00,0.646
28/04/2024 11:15:00,0.646
28/04/2024 11:30:00,0.646
28/04/2024 11:45:00,0.646
28/04/2024 12:00:00,0.646
28/04/2024 12:15:00,0.646
28/04/2024 12:30:00,0.646
28/04/2024 12:45:00,0.646
28/04/2024 13:00:00,0.647
28/04/2024 13:15:00,0.647
28/04/2024 13:30:00,0.647
28/04/2024 13:45:00,0.648
28/04/2024 14:00:00,0.648
28/04/2024 14:15:00,0.648
28/04/2024 14:30:00,0.648
28/04/2024 14:45:00,0.648
28/04/2024 15:00:00,0.648
28/04/2024 15:15:00,0.648
28/04/2024 15:30:00,0.648
28/04/2024 15:45:00,0.648
28/04/2024 16:00:00,0.648
28/04/2024 16:15:00,0.648
28/04/2024 16:30:00,0.648
28/04/2024 16:45:00,0.648
28/04/2024 17:00:00,0.649
28/04/2024 17:15:00,0.649
28/04/2024 17:30:00,0.65
28/04/2024 17:45:00,0.65
28/04/2024 18:00:00,0.65
28/04/2024 18:15:00,0.65
28/04/2024 18:30:00,0.65
28/04/2024 18:45:00,0.65
28/04/2024 19:00:00,0.65
28/04/2024 19:15:00,0.65
28/04/2024 19:30:00,0.651
28/04/2024 19:45:00,0.651
28/04/2024 20:00:00,0.652
28/04/2024 20:15:00,0.652
28/04/2024 20:30:00,0.653
28/04/2024 20:45:00,0.653
28/04/2024 21:00:00,0.653
28/04/2024 21:15:00,0.653
28/04/2024 21:30:00,0.654
28/04/2024 21:45:00,0.655
28/04/2024 22:00:00,0.655
28/04/2024 22:15:00,0.655
28/04/2024 22:30:00,0.655
28/04/2024 22:45:00,0.655
28/04/2024 23:00:00,0.655
28/04/2024 23:15:00,0.656
28/04/2024 23:30:00,0.656
28/04/2024 23:45:00,0.656
29/04/2024 00:00:00,0.657
29/04/2024 00:15:00,0.658
29/04/2024 00:30:00,0.658
29/04/2024 00:45:00,0.659
29/04/2024 01:00:00,0.66
29/04/2024 01:15:00,0.661
29/04/2024 01:30:00,0.661
29/04/2024 01:45:00,0.661
29/04/2024 02:00:00,0.662
29/04/2024 02:15:00,0.663
29/04/2024 02:30:00,0.663
29/04/2024 02:45:00,0.664
29/04/2024 03:00:00,0.664
29/04/2024 03:15:00,0.664
29/04/2024 03:30:00,0.665
29/04/2024 03:45:00,0.666
29/04/2024 04:00:00,0.666
29/04/2024 04:15:00,0.667
29/04/2024 04:30:00,0.668
29/04/2024 04:45:00,0.668
29/04/2024 05:00:00,0.668
29/04/2024 05:15:00,0.668
29/04/2024 05:30:00,0.668
29/04/2024 05:45:00,0.668
29/04/2024 06:00:00,0.668
29/04/2024 06:15:00,0.668
29/04/2024 06:30:00,0.668
29/04/2024 06:45:00,0.668
29/04/2024 07:00:00,0.667
29/04/2024 07:15:00,0.667
29/04/2024 07:30:00,0.667
29/04/2024 07:45:00,0.667
29/04/2024 08:00:00,0.666
29/04/2024 08:15:00,0.666
29/04/2024 08:30:00,0.666
29/04/2024 08:45:00,0.666
29/04/2024 09:00:00,0.665
29/04/2024 09:15:00,0.666
29/04/2024 09:30:00,0.666
29/04/2024 09:45:00,0.665
29/04/2024 10:00:00,0.664
29/04/2024 10:15:00,0.664
29/04/2024 10:30:00,0.664
29/04/2024 10:45:00,0.664
29/04/2024 11:00:00,0.664
29/04/2024 11:15:00,0.663
29/04/2024 11:30:00,0.663
29/04/2024 11:45:00,0.662
29/04/2024 12:00:00,0.662
29/04/2024 12:15:00,0.661
29/04/2024 12:30:00,0.661
29/04/2024 12:45:00,0.661
29/04/2024 13:00:00,0.661
29/04/2024 13:15:00,0.66
29/04/2024 13:30:00,0.659
29/04/2024 13:45:00,0.659
29/04/2024 14:00:00,0.658
29/04/2024 14:15:00,0.657
29/04/2024 14:30:00,0.657
29/04/2024 14:45:00,0.657
29/04/2024 15:00:00,0.657
29/04/2024 15:15:00,0.656
29/04/2024 15:30:00,0.656
29/04/2024 15:45:00,0.656
29/04/2024 16:00:00,0.656
29/04/2024 16:15:00,0.656
29/04/2024 16:30:00,0.656
29/04/2024 16:45:00,0.656
29/04/2024 17:00:00,0.656
29/04/2024 17:15:00,0.656
29/04/2024 17:30:00,0.655
29/04/2024 17:45:00,0.655
29/04/2024 18:00:00,0.655
29/04/2024 18:15:00,0.655
29/04/2024 18:30:00,0.655
29/04/2024 18:45:00,0.656
29/04/2024 19:00:00,0.656
29/04/2024 19:15:00,0.656
29/04/2024 19:30:00,0.656
29/04/2024 19:45:00,0.656
29/04/2024 20:00:00,0.656
29/04/2024 20:15:00,0.656
29/04/2024 20:30:00,0.656
29/04/2024 20:45:00,0.656
29/04/2024 21:00:00,0.656
29/04/2024 21:15:00,0.657
29/04/2024 21:30:00,0.657
29/04/2024 21:45:00,0.657
29/04/2024 22:00:00,0.658
29/04/2024 22:15:00,0.658
29/04/2024 22:30:00,0.658
29/04/2024 22:45:00,0.66
29/04/2024 23:00:00,0.66
29/04/2024 23:15:00,0.661
29/04/2024 23:30:00,0.661
29/04/2024 23:45:00,0.663
30/04/2024 00:00:00,0.664
30/04/2024 00:15:00,0.666
30/04/2024 00:30:00,0.668
30/04/2024 00:45:00,0.672
30/04/2024 01:00:00,0.676
30/04/2024 01:15:00,0.68
30/04/2024 01:30:00,0.686
30/04/2024 01:45:00,0.692
30/04/2024 02:00:00,0.699
30/04/2024 02:15:00,0.712
30/04/2024 02:30:00,0.734
30/04/2024 02:45:00,0.766
30/04/2024 03:00:00,0.794
30/04/2024 03:15:00,0.814
30/04/2024 03:30:00,0.825
30/04/2024 03:45:00,0.832
30/04/2024 04:00:00,0.834
30/04/2024 04:15:00,0.836
30/04/2024 04:30:00,0.836
30/04/2024 04:45:00,0.835
30/04/2024 05:00:00,0.834
30/04/2024 05:15:00,0.835
30/04/2024 05:30:00,0.836
30/04/2024 05:45:00,0.837
30/04/2024 06:00:00,0.837
30/04/2024 06:15:00,0.84
30/04/2024 06:30:00,0.846
30/04/2024 06:45:00,0.86
30/04/2024 07:00:00,0.88
30/04/2024 07:15:00,0.903
30/04/2024 07:30:00,0.92
30/04/2024 07:45:00,0.932
30/04/2024 08:00:00,0.938
30/04/2024 08:15:00,0.943
30/04/2024 08:30:00,0.945
30/04/2024 08:45:00,0.946
30/04/2024 09:00:00,0.947
30/04/2024 09:15:00,0.948
30/04/2024 09:30:00,0.948
30/04/2024 09:45:00,0.947
30/04/2024 10:00:00,0.946
30/04/2024 10:15:00,0.945
30/04/2024 10:30:00,0.942
30/04/2024 10:45:00,0.939
30/04/2024 11:00:00,0.937
30/04/2024 11:15:00,0.934
30/04/2024 11:30:00,0.93
30/04/2024 11:45:00,0.926
30/04/2024 12:00:00,0.923
30/04/2024 12:15:00,0.919
30/04/2024 12:30:00,0.915
30/04/2024 12:45:00,0.911
30/04/2024 13:00:00,0.908
30/04/2024 13:15:00,0.905
30/04/2024 13:30:00,0.9
30/04/2024 13:45:00,0.898
30/04/2024 14:00:00,0.895
30/04/2024 14:15:00,0.892
30/04/2024 14:30:00,0.889
30/04/2024 14:45:00,0.887
30/04/2024 15:00:00,0.884
30/04/2024 15:15:00,0.882
30/04/2024 15:30:00,0.88
30/04/2024 15:45:00,0.878
30/04/2024 16:00:00,0.876
30/04/2024 16:15:00,0.874
30/04/2024 16:30:00,0.872
30/04/2024 16:45:00,0.87
30/04/2024 17:00:00,0.867
30/04/2024 17:15:00,0.865
30/04/2024 17:30:00,0.862
30/04/2024 17:45:00,0.859
30/04/2024 18:00:00,0.857
30/04/2024 18:15:00,0.855
30/04/2024 18:30:00,0.854
30/04/2024 18:45:00,0.85
30/04/2024 19:00:00,0.849
30/04/2024 19:15:00,0.847
30/04/2024 19:30:00,0.844
30/04/2024 19:45:00,0.842
30/04/2024 20:00:00,0.84
30/04/2024 20:15:00,0.837
30/04/2024 20:30:00,0.836
30/04/2024 20:45:00,0.834
30/04/2024 21:00:00,0.832
30/04/2024 21:15:00,0.829
30/04/2024 21:30:00,0.827
30/04/2024 21:45:00,0.825
30/04/2024 22:00:00,0.824
30/04/2024 22:15:00,0.822
30/04/2024 22:30:00,0.821
30/04/2024 22:45:00,0.818
30/04/2024 23:00:00,0.817
30/04/2024 23:15:00,0.816
30/04/2024 23:30:00,0.814
30/04/2024 23:45:00,0.812
01/05/2024 00:00:00,0.811
01/05/2024 00:15:00,0.81
01/05/2024 00:30:00,0.809
01/05/2024 00:45:00,0.808
01/05/2024 01:00:00,0.806
01/05/2024 01:15:00,0.806
01/05/2024 01:30:00,0.804
01/05/2024 01:45:00,0.803
01/05/2024 02:00:00,0.802
01/05/2024 02:15:00,0.801
01/05/2024 02:30:00,0.8
01/05/2024 02:45:00,0.799
01/05/2024 03:00:00,0.798
01/05/2024 03:15:00,0.796
01/05/2024 03:30:00,0.795
01/05/2024 03:45:00,0.794
01/05/2024 04:00:00,0.794
01/05/2024 04:15:00,0.792
01/05/2024 04:30:00,0.792
01/05/2024 04:45:00,0.791
01/05/2024 05:00:00,0.79
01/05/2024 05:15:00,0.788
01/05/2024 05:30:00,0.788
01/05/2024 05:45:00,0.787
01/05/2024 06:00:00,0.786
01/05/2024 06:15:00,0.784
01/05/2024 06:30:00,0.784
01/05/2024 06:45:00,0.782
01/05/2024 07:00:00,0.78
01/05/2024 07:15:00,0.78
01/05/2024 07:30:00,0.778
01/05/2024 07:45:00,0.777
01/05/2024 08:00:00,0.776
01/05/2024 08:15:00,0.775
01/05/2024 08:30:00,0.774
01/05/2024 08:45:00,0.773
01/05/2024 09:00:00,0.771
01/05/2024 09:15:00,0.77
01/05/2024 09:30:00,0.768
01/05/2024 09:45:00,0.768
01/05/2024 10:00:00,0.766
01/05/2024 10:15:00,0.765
01/05/2024 10:30:00,0.765
01/05/2024 10:45:00,0.764
01/05/2024 11:00:00,0.763
01/05/2024 11:15:00,0.762
01/05/2024 11:30:00,0.761
01/05/2024 11:45:00,0.76
01/05/2024 12:00:00,0.759
01/05/2024 12:15:00,0.758
01/05/2024 12:30:00,0.758
01/05/2024 12:45:00,0.757
01/05/2024 13:00:00,0.756
01/05/2024 13:15:00,0.755
01/05/2024 13:30:00,0.754
01/05/2024 13:45:00,0.753
01/05/2024 14:00:00,0.752
01/05/2024 14:15:00,0.752
01/05/2024 14:30:00,0.751
01/05/2024 14:45:00,0.75
01/05/2024 15:00:00,0.75
01/05/2024 15:15:00,0.75
01/05/2024 15:30:00,0.749
01/05/2024 15:45:00,0.748
01/05/2024 16:00:00,0.748
01/05/2024 16:15:00,0.747
01/05/2024 16:30:00,0.746
01/05/2024 16:45:00,0.746
01/05/2024 17:00:00,0.745
01/05/2024 17:15:00,0.745
01/05/2024 17:30:00,0.744
01/05/2024 17:45:00,0.744
01/05/2024 18:00:00,0.743
01/05/2024 18:15:00,0.743
01/05/2024 18:30:00,0.742
01/05/2024 18:45:00,0.742
01/05/2024 19:00:00,0.74
01/05/2024 19:15:00,0.74
01/05/2024 19:30:00,0.74
01/05/2024 19:45:00,0.739
01/05/2024 20:00:00,0.738
01/05/2024 20:15:00,0.738
01/05/2024 20:30:00,0.738
01/05/2024 20:45:00,0.737
01/05/2024 21:00:00,0.737
01/05/2024 21:15:00,0.736
01/05/2024 21:30:00,0.736
01/05/2024 21:45:00,0.735
01/05/2024 22:00:00,0.735
01/05/2024 22:15:00,0.735
01/05/2024 22:30:00,0.734
01/05/2024 22:45:00,0.734
01/05/2024 23:00:00,0.734
01/05/2024 23:15:00,0.733
01/05/2024 23:30:00,0.732
01/05/2024 23:45:00,0.732
02/05/2024 00:00:00,0.732
02/05/2024 00:15:00,0.732
02/05/2024 00:30:00,0.732
02/05/2024 00:45:00,0.732
02/05/2024 01:00:00,0.731
02/05/2024 01:15:00,0.73
02/05/2024 01:30:00,0.73
02/05/2024 01:45:00,0.73
02/05/2024 02:00:00,0.73
02/05/2024 02:15:00,0.73
02/05/2024 02:30:00,0.729
02/05/2024 02:45:00,0.729
02/05/2024 03:00:00,0.728
02/05/2024 03:15:00,0.728
02/05/2024 03:30:00,0.728
02/05/2024 03:45:00,0.728
02/05/2024 04:00:00,0.728
02/05/2024 04:15:00,0.727
02/05/2024 04:30:00,0.727
02/05/2024 04:45:00,0.727
02/05/2024 05:00:00,0.726
02/05/2024 05:15:00,0.726
02/05/2024 05:30:00,0.725
02/05/2024 05:45:00,0.725
02/05/2024 06:00:00,0.725
02/05/2024 06:15:00,0.724
02/05/2024 06:30:00,0.724
02/05/2024 06:45:00,0.724
02/05/2024 07:00:00,0.724
02/05/2024 07:15:00,0.724
02/05/2024 07:30:00,0.724
02/05/2024 07:45:00,0.724
02/05/2024 08:00:00,0.723
02/05/2024 08:15:00,0.722
02/05/2024 08:30:00,0.722
02/05/2024 08:45:00,0.722
02/05/2024 09:00:00,0.722
02/05/2024 09:15:00,0.722
02/05/2024 09:30:00,0.722
02/05/2024 09:45:00,0.722
02/05/2024 10:00:00,0.722
02/05/2024 10:15:00,0.722
02/05/2024 10:30:00,0.722
02/05/2024 10:45:00,0.722
02/05/2024 11:00:00,0.722
02/05/2024 11:15:00,0.722
02/05/2024 11:30:00,0.722
02/05/2024 11:45:00,0.722
02/05/2024 12:00:00,0.722
02/05/2024 12:15:00,0.722
02/05/2024 12:30:00,0.722
02/05/2024 12:45:00,0.721
02/05/2024 13:00:00,0.72
02/05/2024 13:15:00,0.72
02/05/2024 13:30:00,0.72
02/05/2024 13:45:00,0.72
02/05/2024 14:00:00,0.72
02/05/2024 14:15:00,0.719
02/05/2024 14:30:00,0.719
02/05/2024 14:45:00,0.719
02/05/2024 15:00:00,0.718
02/05/2024 15:15:00,0.718
02/05/2024 15:30:00,0.718
02/05/2024 15:45:00,0.718
02/05/2024 16:00:00,0.717
02/05/2024 16:15:00,0.717
02/05/2024 16:30:00,0.717
02/05/2024 16:45:00,0.716
02/05/2024 17:00:00,0.716
02/05/2024 17:15:00,0.715
02/05/2024 17:30:00,0.715
02/05/2024 17:45:00,0.714
02/05/2024 18:00:00,0.714
02/05/2024 18:15:00,0.714
02/05/2024 18:30:00,0.713
02/05/2024 18:45:00,0.713
02/05/2024 19:00:00,0.713
02/05/2024 19:15:00,0.714
02/05/2024 19:30:00,0.714
02/05/2024 19:45:00,0.716
02/05/2024 20:00:00,0.717
02/05/2024 20:15:00,0.717
02/05/2024 20:30:00,0.717
02/05/2024 20:45:00,0.716
02/05/2024 21:00:00,0.714
02/05/2024 21:15:00,0.713
02/05/2024 21:30:00,0.712
02/05/2024 21:45:00,0.711
02/05/2024 22:00:00,0.709
02/05/2024 22:15:00,0.709
02/05/2024 22:30:00,0.708
02/05/2024 22:45:00,0.707
02/05/2024 23:00:00,0.706
02/05/2024 23:15:00,0.706
02/05/2024 23:30:00,0.705
02/05/2024 23:45:00,0.704
03/05/2024 00:00:00,0.704
03/05/2024 00:15:00,0.704
03/05/2024 00:30:00,0.704
03/05/2024 00:45:00,0.702
03/05/2024 01:00:00,0.702
03/05/2024 01:15:00,0.702
03/05/2024 01:30:00,0.701
03/05/2024 01:45:00,0.701
03/05/2024 02:00:00,0.7
03/05/2024 02:15:00,0.699
03/05/2024 02:30:00,0.699
03/05/2024 02:45:00,0.698
03/05/2024 03:00:00,0.698
03/05/2024 03:15:00,0.698
03/05/2024 03:30:00,0.697
03/05/2024 03:45:00,0.697
03/05/2024 04:00:00,0.697
03/05/2024 04:15:00,0.697
03/05/2024 04:30:00,0.697
03/05/2024 04:45:00,0.697
03/05/2024 05:00:00,0.697
03/05/2024 05:15:00,0.697
03/05/2024 05:30:00,0.697
03/05/2024 05:45:00,0.697
